Find Starlink 32765

NORAD ID: 62747 Int'l Des: 2025-014 Owner: SPXS Country: US Constellation: starlink operational
LEOCIRCULAR

实时位置

正在加载3D地球...

关于 Starlink 32765

正在加载描述...

即将过境

Passes for default location (London). Set your location on the main map for personalized predictions.

高度历史

Loading altitude history...

两行轨道根数

1 62747U 25014N 26122.28802544 .00015650 00000-0 57710-3 0 9994
2 62747 43.0001 211.7722 0001510 263.8904 96.1775 15.27574402 71456
Epoch: May 2, 2026 • Age: 12 hours

当前状态

高度 486.2 km
速度 7.62 km/s
星下点 -17.16°S, 38.56°E
发射日期 Jan 21, 2025
运行时间 1.2 years
类型 internet

技术详情

分类 Payload
质量 730.00 kg
干质量 700.00 kg
总质量 730.00 kg
长度 0.30 m
直径 4.10 m
跨度 29.00 m
形状 Box + pan
制造商 SPXS
平台类型 Starlink V2M
阶段状态 In Orbit
所有者/国家 SPXS/US

Most Searched